N5CSC Weather Reports


time (UTC)temp
F
wind
direction
speed
knots
gust
knots
rain 1hr
in
rain 24hr
in
rain mn
in
humidity
%
barometer
mb
20220627194557 100 123 0.9 10.4 0.00 0.00 0.00 22 1015.0
20220627193116 101 116 2.6 5.2 0.00 0.00 0.00 22 1015.2
20220627191546 100 60 0.9 8.7 0.00 0.00 0.00 22 1015.5
20220627190042 99 16 4.3 12.2 0.00 0.00 0.00 22 1015.9
20220627184538 99 100 2.6 7.8 0.00 0.00 0.00 22 1016.3
20220627183043 98 15 3.5 7.0 0.00 0.00 0.00 23 1016.5
20220627181532 98 291 1.7 8.7 0.00 0.00 0.00 23 1016.8
20220627180031 98 13 1.7 6.1 0.00 0.00 0.00 23 1017.1
20220627174536 98 130 3.5 8.7 0.00 0.00 0.00 25 1017.2
20220627173026 97 37 1.7 6.1 0.00 0.00 0.00 25 1017.4
20220627171523 96 59 0.9 3.5 0.00 0.00 0.00 26 1017.6
20220627170022 96 55 1.7 7.8 0.00 0.00 0.00 25 1017.7
20220627164519 95 70 2.6 9.6 0.00 0.00 0.00 26 1017.8
20220627163014 94 313 2.6 4.3 0.00 0.00 0.00 29 1017.8
20220627161510 92 346 1.7 7.0 0.00 0.00 0.00 30 1017.8
20220627160006 91 62 2.6 6.1 0.00 0.00 0.00 35 1017.9
20220627154502 89 292 1.7 6.1 0.00 0.00 0.00 40 1018.1
20220627153108 89 308 2.6 6.1 0.00 0.00 0.00 42 1018.2
20220627151556 88 329 0.0 7.0 0.00 0.00 0.00 46 1018.2
20220627150052 86 348 1.7 6.1 0.00 0.00 0.00 50 1018.4
20220627144548 84 321 2.6 5.2 0.00 0.00 0.00 54 1018.6
20220627143043 83 30 1.7 4.3 0.00 0.00 0.00 58 1018.7
20220627141543 81 33 0.9 4.3 0.00 0.00 0.00 63 1018.9
20220627140041 79 43 1.7 3.5 0.00 0.00 0.00 67 1018.9
20220627134539 78 26 1.7 4.3 0.00 0.00 0.00 69 1018.9
20220627133036 77 37 2.6 3.5 0.00 0.00 0.00 71 1018.7
20220627131535 76 56 1.7 3.5 0.00 0.00 0.00 73 1018.5
20220627130033 75 153 0.0 0.9 0.00 0.00 0.00 74 1018.1
20220627124532 74 153 0.0 0.9 0.00 0.00 0.00 76 1017.8
20220627123031 73 153 0.0 0.0 0.00 0.00 0.00 76 1018.2
20220627121534 72 153 0.0 0.9 0.00 0.00 0.00 75 1018.1
20220627120028 72 154 0.0 0.0 0.00 0.00 0.00 74 1018.0
20220627114533 72 154 0.0 0.0 0.00 0.00 0.00 74 1017.7
20220627113026 72 154 0.0 0.0 0.00 0.00 0.00 74 1017.5
20220627111525 72 154 0.0 0.0 0.00 0.00 0.00 72 1017.5
20220627110025 72 154 0.0 0.0 0.00 0.00 0.00 73 1017.3
20220627104523 72 154 0.0 0.0 0.00 0.00 0.00 71 1017.2
20220627103021 73 154 0.0 0.0 0.00 0.00 0.00 71 1017.2
20220627101520 73 154 0.0 0.0 0.00 0.00 0.00 71 1017.2
20220627100020 73 154 0.0 0.0 0.00 0.00 0.00 70 1017.2
20220627094521 73 154 0.0 0.0 0.00 0.00 0.00 69 1017.0
20220627093017 74 154 0.0 0.0 0.00 0.00 0.00 68 1016.9
20220627091515 74 154 0.0 0.0 0.00 0.00 0.00 69 1016.9
20220627090013 74 154 0.0 0.0 0.00 0.00 0.00 67 1017.0
20220627084511 75 154 0.0 0.0 0.00 0.00 0.00 67 1016.9
20220627083013 75 154 0.0 0.0 0.00 0.00 0.00 67 1017.2
20220627081507 76 154 0.0 0.0 0.00 0.00 0.00 66 1017.1
20220627080109 76 154 0.0 0.0 0.00 0.00 0.00 67 1017.2
20220627074504 76 154 0.0 0.0 0.00 0.00 0.00 65 1017.4
20220627073003 76 154 0.0 0.0 0.00 0.00 0.00 63 1017.5
20220627071602 77 154 0.0 0.0 0.00 0.00 0.00 63 1017.5
20220627070100 77 154 0.0 0.0 0.00 0.00 0.00 63 1017.5
20220627064558 77 154 0.0 0.0 0.00 0.00 0.00 61 1017.6
20220627063055 78 154 0.0 0.9 0.00 0.00 0.00 58 1017.8
20220627061601 79 154 0.0 0.0 0.00 0.00 0.00 57 1017.8
20220627060049 79 154 0.0 0.0 0.00 0.00 0.00 56 1017.7
20220627054546 80 154 0.0 0.0 0.00 0.00 0.00 53 1017.6
20220627053041 81 154 0.0 0.0 0.00 0.00 0.00 53 1017.4
20220627051539 81 154 0.0 0.9 0.00 0.00 0.00 51 1017.2
20220627050039 82 152 0.0 0.9 0.00 0.00 0.00 49 1017.1
20220627044533 83 151 0.9 1.7 0.00 0.00 0.00 47 1016.9
20220627043033 83 151 0.0 0.0 0.00 0.00 0.00 43 1016.9
20220627041532 84 151 0.0 1.7 0.00 0.00 0.00 42 1016.5
20220627040031 85 148 0.9 3.5 0.00 0.00 0.00 41 1016.3
20220627034530 85 186 1.7 4.3 0.00 0.00 0.00 41 1016.2
20220627033030 86 157 1.7 3.5 0.00 0.00 0.00 45 1016.0
20220627031530 87 170 0.9 3.5 0.00 0.00 0.00 44 1015.7
20220627030029 88 124 2.6 5.2 0.00 0.00 0.00 43 1015.3
20220627024529 88 128 1.7 6.1 0.00 0.00 0.00 44 1015.2
20220627023029 88 166 2.6 7.0 0.00 0.00 0.00 47 1014.8
20220627021528 89 159 1.7 3.5 0.00 0.00 0.00 47 1014.6
20220627020027 89 168 1.7 6.1 0.00 0.00 0.00 46 1014.3
20220627014526 90 185 1.7 6.1 0.00 0.00 0.00 44 1014.3
20220627013025 91 140 3.5 7.0 0.00 0.00 0.00 42 1014.0
20220627011529 95 164 4.3 7.8 0.00 0.00 0.00 33 1013.8
20220627010026 96 119 1.7 3.5 0.00 0.00 0.00 22 1013.5
20220627004524 97 134 1.7 3.5 0.00 0.00 0.00 21 1013.4
20220627003022 98 107 2.6 7.8 0.00 0.00 0.00 21 1013.2
20220627001523 98 85 0.9 7.8 0.00 0.00 0.00 21 1013.3
20220627000022 99 57 4.3 9.6 0.00 0.00 0.00 21 1013.2
20220626234522 99 110 3.5 7.0 0.00 0.00 0.00 19 1013.2
20220626233021 99 86 2.6 6.1 0.00 0.00 0.00 21 1013.2
20220626231520 100 103 1.7 5.2 0.00 0.00 0.00 19 1013.2
20220626230119 100 80 2.6 9.6 0.00 0.00 0.00 18 1013.3
20220626224516 99 71 1.7 8.7 0.00 0.00 0.00 19 1013.5
20220626223115 99 127 1.7 8.7 0.00 0.00 0.00 20 1013.6
20220626221513 99 115 3.5 7.8 0.00 0.00 0.00 20 1013.8
20220626220010 99 117 2.6 6.1 0.00 0.00 0.00 22 1014.0
20220626214510 98 59 3.5 8.7 0.00 0.00 0.00 21 1014.1
20220626213006 99 118 1.7 7.0 0.00 0.00 0.00 22 1014.4
20220626211510 99 63 0.9 7.0 0.00 0.00 0.00 23 1014.5
20220626210001 99 119 2.6 8.7 0.00 0.00 0.00 25 1014.6
20220626204603 98 110 1.7 6.1 0.00 0.00 0.00 24 1014.8
20220626203057 97 100 1.7 7.8 0.00 0.00 0.00 28 1015.0
20220626201556 96 86 3.5 8.7 0.00 0.00 0.00 29 1015.1
20220626200054 96 49 1.7 7.0 0.00 0.00 0.00 30 1015.3